This is the latest recevied weather packets stored in our database for station/object WD9EKA. If no packets are shown the sender has not sent any weather packets the latest 10 day(s).
| Time | Temp. | Humidity | Pressure | Rain* | Wind** | Luminosity | Snow |
|---|---|---|---|---|---|---|---|
| 1777962994 | 14.44° C | 85% | 1003.5 hPa | 0.25 mm | - | - | - |
| 1777962634 | 15° C | 80% | 1004 hPa | 0.25 mm | - | - | - |
| 1777962273 | 15.56° C | 75% | 1003.3 hPa | 0 mm | - | - | - |
| 1777961914 | 16.11° C | 77% | 1002.5 hPa | 0 mm | - | - | - |
| 1777961606 | 17.22° C | 76% | 1001.9 hPa | 0 mm | - | - | - |
| 1777961287 | 18.33° C | 73% | 1002 hPa | 0 mm | - | - | - |
| 1777960966 | 19.44° C | 67% | 1001.5 hPa | 0 mm | - | - | - |
| 1777960646 | 19.44° C | 65% | 999.8 hPa | 0 mm | - | - | - |
| 1777960326 | 19.44° C | 64% | 999.4 hPa | 0 mm | - | - | - |
| 1777960006 | 19.44° C | 64% | 999.4 hPa | 0 mm | - | - | - |
| 1777959686 | 20° C | 62% | 998.9 hPa | 0 mm | - | - | - |
| 1777959366 | 20° C | 61% | 999 hPa | 0 mm | - | - | - |
| 1777959046 | 20° C | 61% | 999 hPa | 0 mm | - | - | - |
| 1777958726 | 20° C | 61% | 999.3 hPa | 0 mm | - | - | - |
| 1777958407 | 20.56° C | 60% | 999 hPa | 0 mm | - | - | - |
| 1777958086 | 20.56° C | 59% | 998.9 hPa | 0 mm | - | - | - |
| 1777957766 | 20.56° C | 60% | 999.2 hPa | 0 mm | - | - | - |
| 1777957446 | 20.56° C | 60% | 999.3 hPa | 0 mm | - | - | - |
| 1777957126 | 20.56° C | 58% | 999.2 hPa | 0 mm | - | - | - |
| 1777956806 | 20.56° C | 59% | 998.8 hPa | 0 mm | - | - | - |
| 1777956487 | 20.56° C | 59% | 999.2 hPa | 0 mm | - | - | - |
| 1777956166 | 20.56° C | 58% | 999.2 hPa | 0 mm | - | - | - |
| 1777955846 | 20.56° C | 58% | 998.9 hPa | 0 mm | - | - | - |
| 1777955526 | 21.11° C | 59% | 998.7 hPa | 0 mm | - | - | - |
| 1777955206 | 20.56° C | 57% | 998.6 hPa | 0 mm | - | - | - |
* Rain latest hour (hover to see other rain measurements)
** Current wind speed in m/s (hover to see current wind gust speed)